Flag for U.S.A. Weather past 2 weeks in Atascadero, California, U.S.A.

Now
78 °F

Sunny.


Feels Like: 79 °F
Forecast: 57 / 79 °F
Wind: 22 mph from Southwest

Location: Paso Robles Municipal Airport

Current Time: Sep 20, 2014 at 5:32:08 PM

Latest Report: Sep 20, 2014 at 4:53 PM


Visibility: 10 mi

Pressure: 29.83 "Hg

Humidity: 48%

Dew point: 57 °F

Location of AtascaderoLocation

Historic Weather in Atascadero — Graph

°F

Atascadero temperature yesterday

Maximum temperature yesterday: 87 °F (at 3:53 PM)
Minimum temperature yesterday: 62 °F (at 12:53 AM)
Average temperature yesterday: 70 °F

Past Weeks' High & Low Weather Summary

 TemperatureHumidityPressure
High104 °F (Sep 12, 2:53 PM)93% (Sep 9, 7:53 AM)30.00 "Hg (Sep 9, 7:53 AM)
Low48 °F (Sep 6, 6:53 AM)6% (Sep 7, 2:53 PM)29.71 "Hg (Sep 14, 4:53 PM)
Average73 °F47%29.84 "Hg
* Reported Sep 5 3:53 PM — Sep 20 3:53 PM, Atascadero, Weather by CustomWeather, © 2014

Note: Actual official high and low records may vary slightly from our data, if they occured in-between our weather recording intervals... More about our weather records

Advertising

Atascadero weather history for previous 24 hours

 ConditionsComfort  
Time TempWeatherWind HumidityBarometerVisibility
3:53 PM
Sep 20
82 °FSunny.17 mph43%29.84 "Hg10 mi
2:53 PM85 °FSunny.15 mph37%29.85 "Hg10 mi
1:53 PM86 °FSunny.13 mph35%29.86 "Hg10 mi
12:53 PM84 °FSunny.7 mph37%29.88 "Hg10 mi
11:53 AM77 °FSunny.5 mph48%29.91 "Hg10 mi
10:53 AM71 °FSunny.No wind61%29.93 "Hg10 mi
5:53 AM58 °FFog.3 mph93%29.89 "Hg1 mi
4:53 AM58 °FClear.No wind87%29.88 "Hg10 mi
3:53 AM60 °FClear.No wind83%29.87 "Hg10 mi
2:53 AM61 °FClear.No wind83%29.88 "Hg10 mi
1:53 AM62 °FClear.3 mph80%29.88 "Hg10 mi
12:53 AM63 °FClear.3 mph75%29.88 "Hg10 mi
11:53 PM
Sep 19
65 °FClear.7 mph70%29.89 "Hg10 mi
10:53 PM66 °FClear.5 mph70%29.90 "Hg10 mi
9:53 PM65 °FClear.7 mph73%29.90 "Hg10 mi
8:53 PM67 °FClear.12 mph68%29.89 "Hg10 mi
7:53 PM69 °FSunny.12 mph63%29.86 "Hg10 mi
6:53 PM73 °FPassing clouds.17 mph53%29.84 "Hg10 mi
5:53 PM79 °FSunny.17 mph44%29.82 "Hg10 mi
Weather by CustomWeather, © 2014

See weather overviewHow to use our weather pages